Wind_Speed
11 11 10 9 7 6 6 8 10 12 15 17 17 17 18 20 20 19 18 15 11 14 16 13 11 10 9 8 9 8 7 7 9 14 12 13 18 18 17 17 17 16 15 15 15 15 15 15 14 14 14 14 14 14 15 15 14 14 14 15 16 16 15 14 13 13 14 13 12 10 9 9 11 13 15 15 13 13 12 11 11 12 12 12 11
10 12 12 10 8 6 6 7 10 13 13 17 17 17 19 22 23 19 14 13 13 15 16 13 11 10 8 9 10 9 9 8 8 13 13 13 18 18 17 17 17 16 15 15 14 15 15 15 15 14 14 14 14 14 15 15 14 14 14 15 16 16 16 15 13 13 13 13 11 10 9 10 11 13 14 14 14 13 12 10 10 11 12 11 11
10 12 13 12 9 7 7 7 10 13 14 17 16 17 23 26 24 16 10 8 10 15 14 12 11 10 8 8 10 10 11 10 7 11 14 14 17 18 18 17 16 16 15 15 15 15 16 16 16 15 14 14 14 14 14 14 14 14 14 15 16 16 16 16 14 13 13 12 12 11 9 10 11 13 13 13 14 13 12 10 10 10 11 11 11
9 11 13 13 10 7 9 11 11 13 15 16 14 16 21 24 21 14 10 6 7 12 12 9 9 10 9 8 8 9 10 10 6 9 15 15 16 18 18 17 16 16 16 15 15 16 17 17 17 16 15 15 15 14 14 15 15 14 14 15 16 17 17 17 15 14 13 13 12 11 10 10 10 12 13 13 13 13 12 12 11 10 11 11 11
9 9 11 11 10 8 10 12 13 13 14 15 15 16 18 18 18 13 11 7 4 8 10 8 7 9 9 7 6 7 10 9 4 8 15 15 16 17 18 18 16 16 16 15 15 16 17 18 17 16 16 16 16 16 15 15 15 15 15 15 16 17 18 18 17 15 15 13 13 12 10 10 10 11 13 12 12 13 13 13 12 12 11 10 10
11 10 10 9 9 9 10 12 14 15 15 16 15 16 16 14 14 13 10 7 4 6 7 6 2 4 7 7 6 6 9 8 4 8 15 15 16 16 16 18 18 16 16 15 15 16 17 18 18 17 17 17 18 17 16 16 15 15 15 16 16 17 18 18 17 16 15 14 13 12 11 10 11 11 13 13 12 13 13 13 12 12 11 11 10
12 13 13 11 9 9 10 12 15 15 15 15 14 14 15 13 12 14 12 10 8 5 4 5 3 2 1 4 5 6 7 8 6 6 10 14 15 16 16 16 17 17 15 15 16 16 17 18 18 18 18 18 18 17 17 17 16 16 16 16 16 17 17 18 18 16 16 15 14 13 11 10 11 11 13 13 12 12 12 12 11 10 10 11 11
12 13 14 14 12 11 11 12 14 14 13 14 14 15 15 12 13 14 10 9 11 8 4 4 4 2 0 2 2 4 6 7 9 6 6 13 14 15 17 16 16 16 15 14 16 17 16 18 19 19 19 18 18 18 18 17 17 17 16 16 16 17 18 18 19 17 16 16 15 13 12 11 11 11 12 13 12 12 13 12 10 9 10 11 11
12 12 13 14 13 13 12 11 14 14 13 14 14 14 13 11 12 13 9 6 8 9 6 5 4 1 1 3 4 4 6 7 9 8 4 11 13 13 17 18 16 16 15 15 15 16 17 17 18 19 19 19 19 19 19 18 18 19 17 17 17 17 17 18 19 18 17 17 16 15 13 12 12 12 12 13 13 12 13 13 11 9 10 10 11
13 13 13 13 12 13 13 12 14 14 13 14 12 11 11 10 12 12 11 8 7 7 7 5 5 3 2 5 7 6 7 8 9 9 7 6 11 13 15 16 17 17 17 16 15 16 18 18 18 18 19 19 20 20 19 19 19 19 19 18 18 17 17 18 18 19 19 18 17 16 15 13 13 13 13 13 14 13 13 13 13 11 11 10 10
13 13 14 14 13 13 14 14 15 14 13 13 12 11 10 10 11 11 12 11 7 5 5 5 6 4 5 7 7 7 8 8 10 11 9 8 7 12 15 15 15 17 17 16 15 16 18 19 19 19 20 20 21 21 20 20 20 20 20 19 19 18 18 18 19 19 20 19 18 18 17 15 14 14 14 14 14 14 13 13 13 13 12 10 9
14 14 14 14 15 14 14 14 15 15 13 13 12 12 11 9 10 12 13 12 8 4 3 4 2 2 4 7 7 9 9 8 10 11 11 11 7 6 14 15 14 15 16 16 17 17 17 20 20 19 20 20 21 22 22 21 21 21 21 20 20 19 19 19 19 20 20 20 20 19 18 17 15 15 15 15 14 15 15 14 13 13 13 11 10
14 14 14 14 14 14 14 14 15 15 15 14 13 13 13 11 11 12 12 11 7 4 5 4 4 6 5 8 7 7 8 8 9 11 13 14 9 5 8 14 14 14 15 16 17 18 17 19 21 19 18 19 21 23 22 22 22 22 22 21 21 20 20 20 20 20 20 20 20 20 20 19 17 16 16 16 16 15 15 15 14 13 13 13 11
13 14 14 14 14 13 14 14 15 15 16 16 15 14 14 12 11 12 13 11 8 6 6 4 4 8 7 3 5 6 7 8 9 11 13 15 13 8 6 9 13 14 15 15 16 18 18 19 20 19 17 18 21 23 23 24 24 23 23 23 22 22 21 21 21 21 21 21 21 21 21 20 19 18 17 17 17 16 15 15 15 14 14 13 12
13 14 15 14 13 14 14 14 14 15 17 17 17 15 14 13 12 12 12 10 8 7 7 6 6 9 8 3 1 2 5 7 9 12 15 16 15 11 9 8 10 13 15 15 16 17 18 19 19 19 19 19 20 23 25 25 26 25 25 25 24 23 22 22 22 22 22 22 21 22 22 21 20 20 19 18 17 17 16 15 15 15 14 14 13
13 14 14 14 13 14 14 14 14 14 16 17 17 16 16 15 12 11 11 11 9 7 7 8 10 10 5 3 3 2 1 3 6 11 15 17 16 14 13 11 10 11 14 15 16 16 17 19 19 19 21 21 19 21 25 26 26 25 25 25 25 24 23 22 22 22 22 22 22 22 22 21 21 20 20 19 18 17 17 16 15 15 15 15 14
14 13 12 13 13 13 13 14 14 15 15 16 16 17 17 16 13 12 13 13 11 9 8 8 10 10 7 4 3 1 2 2 3 7 11 15 16 16 16 14 12 12 13 14 15 17 17 18 19 18 20 21 20 19 22 24 25 26 26 26 25 25 24 23 23 22 22 22 22 22 22 22 21 20 21 20 19 18 18 18 16 16 16 15 15
14 13 12 12 12 12 12 13 14 15 15 15 16 16 17 17 15 13 12 13 11 10 9 8 8 9 11 8 3 2 3 4 2 2 6 11 13 16 17 16 15 14 15 15 15 16 17 19 20 19 20 22 21 21 21 22 23 25 27 27 27 26 26 24 23 23 22 23 23 23 22 22 21 21 21 20 21 20 19 19 18 17 17 16 15
13 13 12 12 12 10 10 12 13 14 15 14 15 16 17 17 16 14 12 12 10 10 10 9 7 7 10 12 10 7 5 5 3 1 2 5 10 14 15 16 16 16 17 18 17 16 16 17 18 19 20 21 21 22 23 23 22 24 26 27 28 27 27 27 25 24 23 23 23 23 23 22 21 21 21 21 21 21 21 20 19 19 18 18 17
12 13 12 12 11 9 9 11 12 14 14 14 14 16 16 16 15 14 12 11 10 10 12 10 8 7 7 10 12 12 11 9 7 4 2 1 4 8 12 15 17 18 18 18 20 18 16 17 17 18 20 21 21 22 23 23 24 26 25 26 28 29 29 29 27 25 24 23 23 23 23 22 22 21 21 21 21 21 22 21 20 20 19 18 18
11 12 12 13 11 9 9 11 12 14 14 14 15 15 16 14 14 14 12 11 11 10 11 12 10 9 9 10 10 13 13 12 12 11 6 3 2 3 6 10 13 19 21 20 21 20 19 18 18 19 20 21 22 23 24 24 24 27 26 25 25 27 30 30 29 27 25 24 23 22 22 22 22 22 21 21 21 21 21 21 21 21 20 19 19
12 11 12 12 11 9 10 11 12 13 13 14 15 15 15 16 15 15 13 12 12 11 11 12 11 10 11 10 10 12 10 9 12 13 10 5 3 2 5 7 7 14 21 23 23 22 20 19 19 19 20 21 22 23 24 24 24 26 27 26 24 24 27 30 30 29 27 25 24 23 23 22 22 22 21 21 21 20 20 21 21 21 21 20 20
12 12 12 12 11 10 10 11 12 13 14 15 16 15 15 16 17 16 14 13 13 12 12 13 11 10 11 12 13 13 10 7 8 11 9 5 4 3 5 10 10 13 16 18 20 22 21 21 21 21 21 22 22 23 24 25 25 24 25 25 24 23 25 27 29 31 30 27 25 24 23 22 22 22 21 21 20 20 20 21 20 20 20 20 21
13 14 14 13 13 11 11 11 13 14 15 16 17 16 15 16 17 17 16 14 13 13 13 14 13 12 13 13 15 15 14 11 8 9 11 10 7 3 5 9 9 12 17 15 16 20 22 23 24 24 25 24 23 23 24 25 26 25 24 25 25 24 24 25 26 29 31 29 27 25 24 23 23 22 21 21 20 20 20 21 21 20 20 19 20
14 15 15 14 14 13 12 12 13 14 15 16 17 17 16 16 17 17 17 15 14 13 13 14 14 14 13 13 15 17 17 15 11 11 12 12 9 6 7 9 7 9 13 14 16 18 21 25 25 25 27 27 26 24 25 26 27 27 26 25 25 25 26 25 26 27 29 30 29 27 25 24 23 22 22 21 21 20 20 21 22 20 20 19 19
15 14 14 14 14 14 13 13 13 13 14 15 16 16 16 16 17 18 17 16 15 14 13 14 14 13 13 14 15 17 18 17 15 14 14 13 12 10 8 7 8 9 8 10 13 13 16 22 25 26 29 30 29 27 25 24 24 24 25 27 26 26 27 26 26 26 27 28 29 27 26 26 25 24 22 22 22 21 20 22 23 21 20 20 19
14 13 13 13 13 14 13 13 13 12 12 14 14 14 15 16 17 18 17 17 17 17 16 15 14 14 14 14 15 16 17 17 16 16 17 17 16 16 12 5 4 7 6 7 10 13 16 17 19 23 27 29 29 28 24 20 19 19 21 27 28 26 27 27 26 26 25 26 28 27 26 26 26 25 23 22 22 21 21 22 23 22 20 20 19
14 13 12 12 13 13 13 13 14 13 13 13 13 13 14 15 16 17 18 17 17 17 17 16 15 14 13 13 15 16 16 17 18 20 20 20 19 19 17 11 6 3 4 4 5 10 16 16 14 17 20 23 25 27 25 23 23 22 20 24 28 26 26 26 26 26 25 25 26 26 26 26 26 26 25 24 23 23 22 22 22 22 22 21 20
12 11 12 12 13 13 13 14 15 15 15 14 13 13 14 15 15 16 17 17 18 18 17 17 16 14 13 13 14 16 16 16 18 20 21 21 20 18 18 18 13 5 3 4 4 5 10 14 14 13 15 18 21 25 28 26 25 25 22 23 27 28 26 25 25 25 24 24 25 26 26 26 26 26 26 25 25 24 24 23 22 23 23 22 21
10 10 11 13 13 13 14 14 15 16 16 16 14 12 13 15 16 16 16 16 18 19 18 17 16 13 12 11 11 13 15 15 16 19 20 20 19 18 18 19 17 12 5 3 3 4 8 11 12 10 11 13 16 20 24 25 24 24 23 21 23 25 25 25 25 24 24 23 23 24 25 24 25 26 27 26 26 25 25 24 23 23 24 23 22
10 10 11 13 14 14 15 15 16 16 16 17 15 12 12 14 15 16 16 16 17 18 19 17 15 13 12 11 11 11 13 14 15 17 20 20 20 19 18 17 17 17 13 6 3 4 8 10 11 9 8 10 13 15 17 18 20 23 22 20 22 21 20 22 24 23 23 23 23 23 23 23 23 24 25 26 26 26 25 24 24 24 24 24 24
11 12 12 13 14 15 16 16 16 17 17 17 16 13 13 14 15 15 16 16 16 17 19 17 15 14 12 11 12 12 12 12 13 16 18 20 20 19 17 17 17 18 17 12 5 6 10 11 9 7 5 8 11 13 14 16 18 20 20 21 24 21 17 20 23 23 22 22 22 23 23 22 22 22 23 24 25 26 25 24 24 24 24 24 24
11 12 13 14 14 15 16 15 15 16 16 16 16 14 14 15 16 16 16 16 16 17 18 17 15 13 12 12 12 12 11 11 12 13 16 19 20 18 18 19 19 19 19 15 9 7 10 12 12 9 6 8 11 11 12 15 17 16 16 20 23 20 16 16 19 23 24 23 21 22 23 23 22 22 21 21 22 23 24 24 24 24 23 23 23
11 12 13 14 14 14 14 14 14 15 15 16 16 15 15 16 16 17 17 16 17 17 18 18 14 12 12 12 11 11 11 10 12 13 14 16 17 18 20 20 19 19 19 18 13 9 8 11 13 12 9 10 10 9 10 12 14 12 14 19 20 17 14 13 14 19 23 24 24 22 22 23 23 22 22 21 20 21 21 22 22 22 22 22 22
11 12 12 13 13 13 13 13 14 15 16 17 16 15 15 15 16 17 18 17 18 18 17 17 15 13 13 10 8 10 11 9 10 12 15 15 14 16 18 18 17 16 16 17 15 12 9 8 9 11 11 12 10 9 10 11 10 9 11 16 16 15 13 11 11 14 17 20 23 23 21 21 22 22 21 21 20 20 21 21 21 21 22 22 22
11 11 11 11 12 12 12 12 13 14 15 16 16 16 15 16 17 19 19 19 19 19 18 18 16 13 13 11 9 9 10 8 9 10 11 12 13 14 15 16 16 15 14 15 16 15 12 9 10 12 13 14 11 8 10 11 9 7 8 11 12 14 15 12 9 10 12 14 18 22 22 21 21 22 21 21 20 20 20 21 21 22 22 23 23
10 9 9 10 11 11 11 11 12 12 13 14 15 14 14 16 17 18 20 20 20 19 18 18 16 13 12 11 10 8 8 9 9 9 8 9 10 12 13 14 15 14 13 13 15 16 14 12 13 15 14 14 13 10 11 13 11 8 7 8 10 11 12 11 6 7 10 12 14 19 21 21 21 21 21 21 21 21 21 22 23 23 24 24 24
10 9 9 9 9 10 10 11 11 11 11 12 13 13 15 18 19 18 18 18 19 19 18 18 16 13 12 12 10 8 6 7 8 9 8 8 9 10 12 14 13 12 12 13 13 14 15 14 14 14 14 13 13 13 12 12 12 10 9 9 9 8 8 9 8 7 9 9 10 13 16 18 19 20 20 21 21 21 22 23 23 24 24 24 24
9 9 9 8 9 10 10 10 11 11 11 11 11 12 16 20 22 20 18 17 17 18 18 18 16 13 12 12 11 8 5 5 7 7 7 6 6 7 8 11 10 9 10 12 11 11 14 14 13 14 14 13 12 13 12 11 11 10 10 9 9 8 9 11 12 11 9 9 9 10 10 11 14 16 17 19 21 22 23 24 24 24 24 24 24
9 9 9 9 10 10 10 10 10 10 11 11 11 12 15 20 24 24 21 18 17 18 18 18 16 13 12 11 9 7 5 5 5 3 3 3 3 3 3 4 6 6 6 8 7 8 10 10 11 11 11 12 12 12 14 14 11 7 7 7 9 11 11 12 12 11 9 9 10 10 9 8 9 9 11 14 16 19 21 22 23 25 25 25 24
9 10 9 9 9 10 11 11 10 10 10 10 11 12 15 20 22 22 21 19 18 18 18 18 16 13 12 9 7 6 5 5 4 0 2 2 2 2 1 1 1 2 2 2 2 3 4 5 8 9 9 11 11 11 14 17 13 7 6 7 9 11 12 12 10 8 8 10 11 10 8 7 8 8 8 10 12 14 16 17 18 19 19 19 19
10 10 10 9 9 10 11 11 11 11 9 9 11 12 16 18 18 18 19 18 18 18 18 18 16 13 12 9 6 5 3 2 1 1 2 2 3 3 3 2 1 1 1 1 3 3 2 2 5 6 8 11 11 9 11 14 14 11 10 10 10 11 12 11 9 8 9 10 11 11 9 8 9 9 8 9 12 13 12 11 12 12 11 10 9
10 10 10 10 10 11 11 11 12 12 10 10 11 13 16 17 17 18 19 17 17 16 17 18 16 13 12 9 7 5 3 2 1 3 3 3 3 3 3 2 1 1 0 2 3 4 4 5 6 6 6 8 9 8 8 8 13 14 13 12 12 14 14 11 7 7 9 9 11 12 10 9 11 11 9 9 11 11 8 8 8 7 5 5 6
11 10 11 11 11 12 11 11 12 12 11 10 11 14 17 18 19 19 17 16 15 14 15 17 14 12 11 10 8 6 4 3 3 4 5 4 4 5 4 3 2 2 2 1 1 2 4 6 7 6 7 6 1 3 5 5 9 12 12 12 12 14 15 12 9 9 9 9 12 13 12 9 10 11 10 9 10 10 9 9 8 7 8 10 11
11 12 12 12 13 13 11 10 12 12 11 10 11 15 18 19 19 17 14 14 13 11 14 16 13 10 11 10 8 7 4 3 2 2 3 3 4 3 3 3 2 2 2 2 2 2 4 4 4 5 6 6 5 4 1 2 6 8 11 13 13 12 12 12 11 11 9 9 13 14 11 9 10 11 13 13 12 14 14 12 11 11 12 13 13
12 13 13 13 13 12 11 11 12 12 10 10 11 14 18 20 18 15 14 14 12 11 14 14 11 9 9 8 9 9 6 3 2 0 1 2 2 3 6 4 2 1 0 2 2 0 2 0 0 3 4 4 5 6 6 5 5 7 9 14 16 14 14 14 12 11 9 10 14 15 12 11 13 15 18 18 16 17 17 15 14 13 12 12 12
11 12 12 12 12 13 12 12 12 11 9 10 11 13 17 19 17 14 14 14 13 12 14 12 8 6 7 6 7 9 7 6 6 3 2 2 1 5 9 7 4 4 4 3 2 1 1 1 2 4 6 7 7 7 8 9 9 7 6 11 16 18 19 17 14 12 9 9 14 15 13 13 16 17 21 20 18 19 17 15 14 12 11 11 11
11 11 11 12 12 12 12 11 11 10 9 9 10 13 16 17 15 13 13 14 13 11 10 8 5 4 7 7 5 6 7 8 8 4 1 3 5 8 9 8 7 7 8 8 7 5 4 4 5 6 8 8 8 8 9 11 13 13 12 14 16 18 19 17 14 14 13 12 14 16 15 14 17 19 21 18 18 19 17 15 13 11 10 10 10
9 10 10 11 13 12 11 10 10 9 8 7 8 13 16 15 14 13 12 13 13 10 7 5 3 4 7 9 6 4 5 7 6 3 3 5 9 10 9 9 10 11 12 12 11 10 10 9 9 9 8 8 9 10 11 12 13 13 14 15 14 14 16 13 10 12 14 13 16 18 17 14 16 20 20 17 17 18 16 14 13 11 10 11 11
8 8 9 11 13 12 10 9 9 9 8 7 8 13 16 14 12 12 11 12 11 8 6 5 3 4 7 10 8 5 5 5 4 3 4 8 11 10 9 11 12 12 12 12 13 14 14 13 13 12 10 10 11 11 10 11 11 11 13 15 12 13 15 13 11 12 13 13 14 16 15 14 16 20 20 16 14 14 13 12 12 11 11 11 11
9 9 9 11 12 10 8 8 9 8 8 7 8 14 17 15 12 11 10 11 11 8 6 4 3 4 6 9 10 6 4 4 2 2 4 8 9 8 10 12 12 11 9 9 11 14 14 14 14 14 14 14 14 13 12 12 11 11 13 14 13 14 16 15 13 11 8 8 10 12 13 13 14 16 14 10 8 9 9 9 10 9 8 9 10
Wind_Direction
281 289 282 268 266 270 269 272 274 274 271 261 255 255 256 255 246 239 240 237 228 221 217 203 191 194 203 202 192 193 190 188 174 161 165 172 171 173 173 171 169 167 167 170 173 172 171 170 169 170 172 173 172 170 168 167 166 167 168 168 167 165 162 160 159 157 154 155 150 142 144 145 141 140 141 138 135 138 137 132 134 136 133 131 131
285 292 291 288 290 295 291 285 287 286 277 265 256 254 261 259 248 242 236 232 230 218 205 202 202 191 197 205 196 195 184 180 175 163 165 170 172 176 176 177 175 171 171 175 177 174 173 173 173 173 175 176 176 173 172 169 168 170 171 172 170 168 168 165 164 163 160 160 155 147 147 147 145 143 142 144 144 142 139 133 134 140 138 133 133
299 298 295 297 303 308 297 279 274 277 274 269 261 255 264 265 260 256 239 222 223 220 205 196 202 190 196 207 193 195 186 174 170 164 163 168 177 179 180 184 183 176 176 181 182 177 175 175 175 176 178 180 180 178 176 173 173 174 174 175 174 173 173 169 168 168 166 165 163 157 152 150 150 148 147 150 150 146 142 138 135 139 141 138 136
308 305 301 300 303 301 291 280 271 272 273 273 269 263 265 265 266 275 267 238 199 214 212 193 192 190 203 211 192 202 196 182 179 169 165 173 184 184 184 188 188 183 182 185 186 181 177 176 176 179 182 183 184 182 181 179 178 178 179 179 178 178 178 175 172 170 170 170 170 165 158 156 154 153 153 152 156 155 149 144 141 140 143 144 141
318 312 306 303 302 293 287 285 280 280 278 272 267 262 264 263 266 278 272 255 209 212 221 208 187 185 202 220 216 204 188 192 210 170 166 174 182 185 188 189 191 188 186 187 187 185 181 178 178 181 185 187 187 187 186 185 185 184 183 182 182 183 183 180 176 174 174 173 176 171 163 162 159 159 158 154 159 164 160 155 152 149 148 149 148
332 327 319 312 303 288 280 279 276 279 281 274 260 254 260 263 271 283 279 270 244 217 234 247 209 176 201 212 208 189 187 207 219 160 164 172 176 183 189 188 193 193 188 190 189 187 186 182 181 183 187 190 191 189 188 189 189 189 187 186 186 187 187 185 181 178 176 175 179 177 169 168 164 162 162 160 162 164 166 166 164 164 159 155 155
341 339 335 328 311 293 285 277 272 276 284 282 270 266 273 277 282 287 294 310 300 260 256 281 312 17 232 217 192 185 206 215 203 171 171 178 177 182 187 188 195 196 191 192 193 191 192 189 186 187 189 193 194 191 191 192 191 191 191 190 190 190 190 189 187 183 178 178 182 181 175 173 172 166 164 167 166 162 163 166 167 171 170 164 161
345 341 339 337 327 314 298 286 279 275 280 282 276 278 284 288 290 286 289 306 300 293 298 280 284 31 88 267 260 212 223 219 212 221 189 182 184 186 187 188 196 197 195 199 198 194 195 196 194 193 191 193 195 194 194 195 193 193 193 193 193 192 193 193 192 189 183 181 184 184 181 179 177 171 170 172 171 166 164 164 164 166 169 171 169
344 340 339 340 336 329 316 303 295 286 282 281 279 283 286 286 290 289 281 267 273 278 286 300 300 305 161 243 281 268 247 235 227 242 227 183 185 189 189 190 195 193 196 207 207 199 197 199 201 200 196 195 197 197 196 196 196 195 195 196 195 193 195 196 195 193 189 186 186 187 187 185 182 178 175 176 177 174 170 169 168 168 168 170 171
342 339 339 338 337 335 330 321 307 300 292 284 282 287 287 282 283 286 279 264 252 247 242 264 272 268 307 248 243 261 253 241 235 245 265 218 190 190 194 196 197 192 194 207 212 207 202 199 203 204 202 201 200 200 200 198 198 197 196 197 196 194 197 198 198 197 196 192 189 190 191 190 188 183 180 180 182 180 177 176 174 175 175 171 170
339 338 338 336 335 333 330 328 320 314 302 291 287 288 289 283 280 281 276 269 261 240 210 225 244 249 308 289 253 249 244 238 241 246 258 263 229 200 197 198 199 196 196 200 205 213 210 202 202 204 205 207 205 204 203 201 199 199 198 199 196 194 198 200 198 199 200 199 195 193 195 196 193 188 184 183 185 183 181 182 182 182 182 179 175
334 334 335 334 334 332 327 326 326 321 310 302 299 295 293 281 277 279 273 269 270 262 234 234 218 174 256 271 247 231 232 233 241 249 250 256 265 219 199 195 198 202 200 198 202 212 215 208 205 206 207 209 209 209 207 204 202 200 199 200 199 197 198 200 200 200 201 202 200 197 197 199 198 194 188 186 189 186 182 183 185 185 183 183 182
331 330 330 330 329 330 328 325 325 324 318 312 307 304 299 284 278 282 276 270 270 257 237 226 134 126 197 241 244 234 235 238 241 253 255 250 257 264 212 196 199 207 205 202 206 211 213 211 208 208 212 213 211 211 211 207 206 204 200 200 200 200 200 201 201 201 201 202 203 202 200 201 202 200 193 189 191 190 186 185 186 187 185 184 185
331 329 326 326 328 328 325 324 323 321 321 318 315 310 301 288 276 275 276 272 266 243 214 201 150 144 153 200 269 273 255 248 245 251 255 249 249 261 244 207 204 209 209 206 209 212 210 211 211 206 214 221 215 211 211 208 208 207 204 202 201 202 203 204 203 202 202 203 203 204 205 204 204 203 197 193 194 193 191 189 188 189 189 187 187
328 326 324 326 332 333 328 327 325 322 322 321 320 315 304 296 280 267 271 269 263 246 221 211 177 150 130 125 230 291 272 265 261 256 251 246 246 242 236 235 221 212 212 209 209 215 213 211 212 205 212 225 221 214 212 211 211 210 207 205 203 204 205 207 207 204 203 203 204 206 207 206 205 205 202 198 197 198 196 194 192 191 192 192 194
325 321 319 322 326 329 330 330 328 325 323 320 319 318 311 305 291 268 263 261 255 247 231 217 191 167 139 118 132 140 252 269 268 260 250 245 246 239 235 244 238 219 219 216 210 215 218 215 215 211 212 222 224 219 217 215 215 213 210 209 207 205 206 209 210 209 206 205 205 206 207 208 208 207 207 204 201 202 202 201 199 196 195 197 199
323 318 312 314 317 320 326 330 329 326 323 320 318 318 314 310 299 278 267 262 256 250 244 227 205 197 184 144 111 135 175 168 242 245 237 239 240 236 236 239 235 226 224 224 219 219 220 216 220 220 215 218 222 222 223 221 218 217 214 213 211 208 207 209 212 211 209 208 206 207 208 210 211 209 209 209 204 204 207 207 205 204 201 200 202
318 318 310 303 306 311 323 329 328 326 324 320 318 316 315 312 306 294 276 264 258 254 250 234 219 220 214 207 212 161 147 151 162 217 228 237 235 229 234 237 234 231 226 225 227 230 227 219 218 220 217 220 221 221 224 223 221 222 218 215 214 211 208 209 213 213 212 210 209 208 209 211 212 211 211 211 209 206 208 209 209 209 206 205 206
317 319 314 304 303 308 322 329 327 329 327 323 319 316 314 312 312 308 292 274 263 258 254 237 221 228 224 224 233 234 215 193 173 158 217 241 236 229 235 237 234 234 231 228 228 232 235 229 221 217 218 222 222 220 223 223 221 224 224 219 217 214 211 210 211 214 214 213 213 210 210 212 213 213 212 213 213 211 211 211 212 212 211 211 211
321 322 317 306 306 314 326 330 329 332 332 329 326 322 320 318 315 315 306 287 267 259 265 256 229 220 221 223 232 240 236 222 214 209 161 211 235 229 239 243 239 237 235 234 233 233 236 237 231 224 220 221 222 219 221 224 223 225 228 225 221 218 215 213 211 213 215 215 216 214 212 211 212 214 215 215 215 214 215 215 215 216 216 216 215
324 327 323 310 309 321 331 331 331 332 332 333 333 332 334 331 323 321 312 295 277 264 269 269 250 231 228 222 223 230 227 225 227 220 205 204 209 210 230 239 244 240 236 235 236 236 235 238 240 234 226 224 224 222 222 224 226 228 229 227 225 222 219 217 213 213 215 216 217 217 215 212 212 214 216 217 217 217 218 219 218 219 220 220 219
324 328 327 317 315 322 326 327 330 330 329 333 334 335 339 339 333 326 319 308 294 278 266 266 260 243 235 224 216 218 215 217 221 215 211 212 220 239 221 216 236 244 240 237 237 238 236 237 242 240 235 230 226 225 223 222 225 230 229 226 225 223 221 219 216 215 216 217 218 219 217 214 214 215 216 219 220 220 222 223 222 221 222 224 224
332 333 330 326 321 317 317 322 326 326 327 330 331 333 336 338 337 330 325 318 303 288 275 268 263 250 244 236 226 219 214 216 215 215 222 217 209 243 236 228 236 242 243 242 241 242 242 243 245 243 240 238 233 229 227 224 224 226 226 227 228 224 220 220 218 218 218 218 219 221 221 218 218 219 219 220 220 221 225 228 227 225 225 226 227
336 336 334 334 330 321 316 319 323 324 326 328 328 331 335 336 336 333 328 322 311 297 284 275 268 259 251 245 239 233 230 236 232 228 236 230 214 213 230 231 238 245 244 242 241 242 242 243 245 244 242 241 238 234 231 228 226 224 225 229 231 225 221 220 219 220 220 221 220 221 223 222 220 221 222 222 222 222 227 231 231 228 227 228 229
333 334 334 337 338 332 322 320 321 321 323 325 325 329 335 336 335 333 330 326 320 306 285 273 271 267 258 250 245 240 237 237 229 225 232 228 220 220 228 229 241 257 251 241 241 245 243 239 239 243 243 240 238 237 235 231 228 226 226 229 232 229 225 223 221 221 222 223 222 221 224 224 221 222 222 221 223 223 226 233 236 232 230 231 231
327 330 332 333 336 337 334 328 323 321 321 323 324 327 332 334 333 333 330 327 324 315 297 280 275 272 263 251 244 244 245 240 227 223 226 220 213 217 223 228 246 262 260 238 235 241 246 243 238 239 241 242 241 240 240 236 229 227 226 226 230 231 229 226 223 222 222 223 221 219 221 224 223 223 222 219 220 221 223 230 237 238 235 234 234
323 325 327 329 333 335 337 333 328 326 324 325 325 326 330 330 331 332 331 329 324 320 314 299 284 276 267 255 247 249 251 241 225 221 226 222 215 216 213 200 238 259 253 234 227 230 242 247 243 240 241 244 246 244 247 250 242 238 235 229 229 230 229 227 224 222 222 222 222 220 219 223 224 223 224 223 221 220 221 226 233 237 239 239 238
322 322 323 327 329 329 331 332 331 329 326 326 326 327 328 327 329 331 330 329 326 322 319 310 296 283 273 261 249 247 246 238 229 227 228 227 221 217 214 207 204 229 242 234 228 233 237 238 239 240 238 241 246 245 248 251 244 241 240 234 231 229 227 226 225 223 222 222 222 221 220 220 222 221 223 225 223 221 223 225 228 232 238 240 242
322 320 322 324 323 325 329 331 332 329 325 323 322 323 325 324 326 327 326 327 327 326 322 313 301 288 277 265 248 245 245 238 238 237 231 228 226 223 221 215 208 204 229 232 222 223 227 227 234 242 241 243 248 248 248 250 245 238 234 232 233 234 230 227 226 225 224 224 223 222 220 218 218 220 222 225 226 226 226 226 226 230 235 239 242
325 318 320 323 322 325 329 330 330 328 324 320 317 320 323 322 322 323 325 326 326 328 326 317 305 293 283 271 253 250 247 239 242 241 229 224 227 230 227 219 214 215 224 237 239 224 212 215 226 236 247 256 259 253 250 253 251 240 233 227 229 238 239 232 229 229 228 226 224 221 218 216 217 219 222 224 227 229 230 229 228 231 235 239 242
325 319 321 323 325 328 330 330 328 326 326 323 320 323 324 322 322 322 325 326 324 326 326 320 309 297 288 279 271 264 250 238 240 240 232 229 230 230 230 224 219 221 226 229 239 233 219 212 214 220 241 266 267 255 249 254 249 236 233 227 223 236 248 240 233 232 231 229 227 222 219 218 218 218 220 224 227 230 231 232 232 233 236 240 243
321 322 325 325 327 331 331 330 328 326 327 324 323 328 328 323 322 321 323 326 325 325 326 323 312 299 287 282 285 279 262 250 246 244 240 237 232 228 230 229 223 223 225 223 222 243 238 227 220 220 241 261 261 253 247 246 237 229 234 231 218 222 240 241 235 234 234 233 231 227 225 224 223 222 222 223 226 228 230 231 232 235 238 241 243
318 322 326 329 332 334 332 331 331 330 328 324 325 330 328 324 322 321 321 323 325 325 325 326 322 310 296 288 292 293 278 262 258 254 248 244 237 229 227 225 223 223 222 220 222 245 250 243 240 239 242 247 249 254 251 236 223 222 232 228 215 217 231 236 233 234 234 234 235 233 230 229 229 228 228 226 226 228 228 230 232 235 239 241 243
317 322 326 332 336 337 335 334 334 333 331 329 329 331 328 325 323 321 321 323 324 322 322 325 327 323 309 292 287 295 288 268 264 259 250 246 240 233 227 222 219 221 220 218 220 230 245 248 247 245 248 250 249 263 265 237 221 222 223 216 213 219 228 230 234 236 232 231 233 235 234 233 233 233 232 232 231 231 230 231 233 235 237 240 243
319 323 328 333 339 341 336 335 337 335 334 332 329 330 330 330 327 325 324 324 324 320 320 323 324 322 319 310 298 298 295 283 276 267 254 246 239 237 235 230 226 226 224 222 222 228 237 246 249 245 245 246 246 267 275 249 225 219 211 206 211 215 210 212 236 247 239 229 228 232 235 234 233 233 233 234 236 236 236 235 236 238 240 242 245
317 324 331 334 340 342 337 337 338 334 334 332 328 329 334 335 333 330 328 323 319 317 317 319 322 323 320 318 316 310 305 302 291 279 268 256 246 243 240 236 237 236 233 230 227 229 234 241 248 247 248 247 244 258 273 257 233 217 208 201 203 209 207 211 235 248 241 231 226 229 234 234 232 231 233 236 238 240 240 240 241 241 243 245 247
313 322 332 332 336 338 334 330 327 327 331 330 330 335 340 339 333 327 325 321 316 315 316 318 321 324 319 311 314 316 311 304 292 283 280 270 256 249 240 235 237 236 232 233 234 236 237 238 245 250 254 253 246 241 247 248 236 214 196 188 184 191 201 207 216 215 212 213 218 224 229 232 232 231 232 235 237 239 241 242 243 243 243 245 247
312 322 328 327 329 331 328 323 318 321 326 326 330 333 334 337 333 322 316 317 317 314 315 317 318 321 320 312 306 305 302 301 297 290 289 276 254 246 239 232 235 242 241 239 243 247 245 242 248 255 256 252 248 241 234 239 237 215 188 176 171 168 170 168 159 163 177 185 194 207 218 226 230 230 232 235 236 238 239 240 242 244 246 248 251
310 321 325 322 320 321 323 321 317 318 319 321 322 317 322 334 336 326 316 315 317 315 314 317 316 319 321 311 301 298 296 299 296 285 286 279 250 246 244 231 234 253 251 243 245 249 247 246 248 252 257 257 257 253 246 248 246 220 190 175 169 163 153 149 149 150 155 166 171 172 183 205 218 224 230 235 238 240 242 243 244 245 247 251 253
307 316 318 317 316 314 317 318 316 316 316 317 312 306 318 332 333 326 317 314 317 317 315 315 313 317 322 314 305 301 297 305 306 279 265 276 244 247 250 217 225 249 249 241 241 241 241 249 251 249 258 264 261 258 255 253 251 227 196 178 167 165 158 150 151 151 151 161 164 157 155 167 184 197 211 222 230 236 240 241 243 242 243 246 247
307 311 312 313 312 311 313 314 315 314 314 313 305 305 322 332 330 323 315 310 312 313 313 311 310 316 321 314 306 299 286 297 316 78 136 143 169 192 141 115 191 239 260 252 226 226 236 259 272 266 262 265 261 255 252 248 244 232 203 173 159 163 163 157 158 163 165 166 164 158 161 174 178 176 184 198 208 221 231 235 237 237 236 237 238
305 308 314 314 309 309 309 311 315 314 309 309 306 314 330 333 328 323 318 312 305 304 307 308 309 316 319 312 309 305 283 285 294 154 161 163 165 174 147 112 121 131 40 30 71 57 23 336 318 300 274 263 256 256 256 239 223 214 201 182 166 161 160 155 151 162 172 175 172 163 164 183 186 175 174 184 190 202 215 220 222 222 218 217 218
300 305 313 312 308 309 308 308 312 311 308 310 312 322 335 337 330 325 322 317 306 298 301 306 309 318 322 321 325 315 285 275 253 213 225 228 218 218 195 164 167 174 27 38 60 50 38 20 359 346 317 284 254 251 266 235 209 204 201 194 181 169 168 163 158 170 176 176 172 158 150 168 181 174 168 176 183 189 188 180 186 190 172 160 150
305 305 306 304 305 306 304 305 310 310 311 314 316 326 338 340 332 325 320 317 310 298 298 304 309 321 328 330 337 333 311 305 285 241 233 228 221 228 223 211 217 238 253 281 38 41 42 23 6 10 7 357 333 226 256 237 213 205 199 197 188 178 174 167 159 168 174 171 162 145 129 142 171 170 157 158 171 170 158 151 153 144 128 122 116
308 306 301 300 301 301 300 305 309 311 311 311 317 328 339 341 334 326 321 319 311 295 295 302 310 329 339 340 348 355 351 335 305 242 226 232 229 214 192 190 202 227 257 274 298 8 39 23 5 27 26 22 53 88 112 213 212 205 200 198 191 178 163 149 143 151 162 167 154 135 120 134 162 155 134 128 138 139 132 129 130 128 123 116 110
302 303 300 300 299 298 300 304 305 305 306 309 319 330 337 338 333 325 325 327 318 297 292 300 315 339 350 354 6 9 359 337 341 78 168 234 246 163 137 137 136 118 289 273 256 15 56 69 342 49 48 46 69 89 98 123 166 185 187 182 173 154 133 122 121 129 143 154 142 123 111 133 154 142 124 120 122 120 114 112 112 112 113 111 105
298 299 298 299 297 295 299 300 299 305 309 310 321 331 334 333 328 323 329 333 325 307 298 301 319 343 342 346 12 22 9 344 339 327 224 217 184 147 139 127 92 60 51 55 88 143 153 129 94 80 78 75 81 91 97 110 127 129 132 147 147 137 122 110 104 108 114 131 137 123 110 129 146 133 119 120 120 114 110 106 100 96 96 96 91
291 292 293 294 291 291 295 295 297 308 310 305 319 332 332 329 324 324 332 335 329 319 310 309 318 338 338 338 2 28 14 350 345 345 181 150 144 146 134 109 84 69 65 68 76 91 109 107 98 95 92 90 94 99 102 108 113 111 110 117 125 124 115 101 91 90 90 104 125 123 112 125 141 131 121 120 117 109 105 101 93 84 76 74 69
275 285 292 291 289 287 288 292 301 309 305 299 319 333 332 327 323 324 332 338 335 329 328 329 321 331 349 355 354 356 356 351 357 30 95 126 137 138 123 105 98 90 86 87 92 98 105 107 106 105 103 106 109 109 111 112 112 118 117 110 113 121 116 103 89 82 82 95 115 115 106 117 138 132 120 114 106 98 92 87 81 72 61 55 50
270 275 281 285 285 285 286 294 301 300 297 299 319 330 330 326 322 321 330 341 341 338 344 356 354 339 353 3 359 346 353 4 17 57 96 125 134 130 119 115 112 105 102 103 102 103 104 104 106 109 109 112 113 108 107 107 111 121 115 103 108 120 114 109 108 97 85 87 104 109 102 108 131 133 121 110 95 84 81 77 69 62 53 42 38
288 281 278 279 284 288 293 299 296 288 288 299 316 324 324 320 315 317 332 343 342 341 348 360 12 10 4 4 3 357 357 8 23 69 104 128 136 132 129 126 119 115 117 116 110 108 107 105 106 106 103 102 104 101 99 100 102 107 107 104 111 116 113 115 118 111 88 72 93 112 108 106 123 133 131 124 98 79 83 83 77 74 59 38 37
Height
820 819 819 819 818 818 818 820 820 820 822 823 824 826 825 824 823 822 822 821 822 824 822 821 820 820 820 820 820 821 822 823 824 824 825 826 828 830 832 833 834 834 836 838 838 839 839 840 841 842 843 844 844 845 845 845 846 847 848 849 850 851 852 853 854 854 855 856 857 858 858 859 859 860 861 861 862 863 864 865 866 867 867 868 869
819 819 818 818 818 818 818 819 820 819 820 822 823 824 824 825 824 823 823 821 819 821 822 820 819 819 819 820 820 820 821 821 823 824 824 826 828 829 831 832 833 834 835 837 838 839 839 840 841 842 843 844 845 845 845 845 846 847 848 849 850 851 851 852 853 854 855 856 857 858 858 858 859 860 861 862 863 864 864 865 866 867 868 868 869
819 818 818 817 818 818 818 819 819 819 819 819 820 821 823 827 826 823 822 822 821 821 822 820 818 818 819 819 820 820 821 821 823 824 824 826 828 829 831 832 833 834 835 837 837 838 838 839 841 842 843 844 845 845 845 846 846 847 848 849 850 850 851 852 853 854 855 856 857 857 858 858 859 860 861 862 863 864 865 866 866 867 868 869 870
819 819 818 818 818 819 818 818 819 819 819 819 819 821 824 826 824 822 820 822 824 822 821 820 819 819 818 819 820 820 822 822 823 824 824 826 827 829 830 832 833 833 835 836 837 837 838 839 840 842 843 844 845 845 846 846 846 847 848 848 849 850 851 852 852 853 854 855 856 857 858 858 859 860 861 862 863 864 865 866 867 867 868 869 870
819 819 818 818 819 819 818 817 818 819 819 820 821 822 823 822 820 820 821 822 822 822 822 822 820 819 819 820 820 821 823 823 823 824 824 825 827 829 830 832 833 834 834 836 836 837 837 838 839 841 842 844 844 845 846 846 846 846 847 848 849 850 851 851 852 853 854 855 856 857 858 858 859 860 861 862 863 864 865 866 867 867 868 869 870
819 818 818 819 819 819 819 819 818 819 819 820 822 823 822 820 819 818 821 821 821 823 825 825 823 821 821 821 821 822 823 823 824 825 824 825 827 829 830 832 833 834 834 835 836 837 837 838 838 839 841 843 844 844 845 846 846 846 847 848 849 850 850 851 851 852 853 855 856 856 857 858 859 860 861 862 862 863 864 865 866 867 868 869 870
819 818 818 819 819 818 819 819 819 819 819 819 820 821 819 818 818 817 818 819 819 822 823 824 824 823 822 823 823 824 824 825 825 826 826 826 828 830 831 832 832 833 834 835 836 836 837 837 838 839 840 842 843 844 845 845 846 846 847 848 848 849 850 851 851 852 853 854 855 856 857 858 859 859 860 861 862 863 864 865 866 867 868 868 870
820 819 819 819 819 818 818 818 818 818 818 818 818 818 818 817 817 816 816 817 819 821 821 822 823 822 822 824 825 825 825 826 825 826 827 826 827 830 831 832 832 833 834 834 835 836 837 838 837 838 839 841 842 843 844 844 845 846 846 847 848 849 850 850 851 852 853 854 855 856 857 857 858 859 860 861 862 862 863 864 865 866 867 868 869
820 820 820 819 819 818 818 818 818 817 818 817 817 817 817 817 816 816 817 818 819 820 821 822 823 823 823 824 826 826 826 826 826 826 827 828 828 829 831 831 832 833 833 834 834 835 836 837 837 838 838 839 841 842 843 843 844 845 846 846 847 848 849 850 851 852 852 853 854 855 856 857 858 858 859 860 861 862 863 864 865 866 866 867 868
820 820 819 819 819 819 818 818 817 817 817 816 816 816 816 816 816 816 817 818 819 820 821 822 823 824 825 824 824 826 826 826 826 826 827 828 828 829 830 831 832 832 833 833 833 834 835 836 837 837 838 838 839 840 841 842 843 844 845 845 846 847 848 849 850 851 852 852 853 854 855 856 857 858 858 859 860 861 862 863 864 865 866 867 867
819 819 819 818 818 818 818 818 817 816 816 816 816 816 816 816 816 816 816 816 818 820 822 823 823 824 826 826 824 824 825 825 826 826 827 828 829 829 829 831 831 832 833 833 833 833 834 835 836 836 837 838 838 839 840 841 842 843 844 844 845 846 847 848 849 850 851 852 852 853 854 855 856 857 858 858 859 860 861 862 863 864 865 866 867
819 819 818 818 818 818 818 817 817 816 816 816 816 816 816 816 816 816 815 815 817 819 821 823 823 825 826 826 825 824 823 824 825 826 827 827 828 829 829 830 831 831 832 832 833 833 833 834 834 835 836 837 837 838 839 839 840 841 842 843 844 845 846 847 848 849 850 851 852 852 853 854 855 856 857 858 858 859 860 862 862 863 864 865 866
819 819 818 818 817 817 817 817 817 816 816 816 816 816 815 815 816 815 814 815 816 818 820 821 822 824 825 824 824 824 824 824 825 826 827 827 827 828 829 829 830 831 831 832 832 832 832 833 833 834 835 836 837 837 838 838 839 840 841 842 843 844 845 845 846 848 849 850 850 851 852 853 854 855 856 857 858 858 859 860 861 862 863 864 865
820 819 818 818 817 817 817 816 816 816 815 815 816 816 815 815 815 814 814 814 815 817 819 819 821 822 824 823 823 823 823 823 824 825 826 827 827 828 828 829 829 830 830 831 831 831 832 832 833 833 834 834 835 836 837 837 838 838 839 840 841 842 843 844 845 846 847 848 849 850 851 852 853 854 855 856 857 857 858 859 860 861 862 863 864
821 820 819 818 818 817 817 816 816 815 815 814 815 815 815 814 814 814 813 814 814 815 817 818 820 821 822 824 824 823 823 822 823 825 826 826 827 827 828 828 829 829 829 830 830 830 831 831 832 833 833 833 834 835 835 836 836 837 838 838 839 841 842 843 844 845 846 847 848 849 850 851 851 852 854 855 856 856 857 858 859 860 861 862 863
821 821 820 819 818 818 817 816 816 815 815 814 814 814 814 814 813 813 813 813 813 814 815 816 818 820 821 823 824 825 826 824 823 824 825 825 825 826 827 827 827 828 828 829 829 830 830 830 831 831 832 832 832 833 834 835 835 836 837 837 838 840 841 842 843 844 845 846 847 848 849 850 851 851 853 854 855 856 857 858 858 859 860 861 862
821 821 820 819 818 818 817 817 816 816 815 815 814 814 813 813 813 812 812 813 813 813 813 814 816 818 819 821 824 826 825 824 823 823 823 823 822 823 824 825 826 826 827 827 828 829 829 829 829 830 830 830 831 832 833 834 834 835 836 836 837 838 839 841 842 843 844 845 846 847 848 849 850 851 852 853 854 855 856 857 858 859 859 860 861
821 821 820 819 819 818 817 817 816 816 815 815 814 813 812 812 812 811 811 812 812 812 812 813 814 816 817 819 820 821 821 822 824 824 822 821 820 821 821 822 824 824 825 826 826 827 828 828 828 829 829 829 830 831 832 832 833 833 834 835 835 836 838 839 841 842 843 844 845 846 847 848 849 850 851 852 853 854 855 856 857 858 859 860 860
821 820 820 819 818 818 817 817 816 815 815 814 814 813 812 811 811 811 811 811 811 811 812 813 813 814 816 818 818 819 819 821 822 822 822 821 819 820 820 820 821 822 823 824 825 826 826 827 827 827 828 828 828 830 830 831 831 832 832 833 834 835 836 837 839 840 842 843 844 845 846 847 848 849 850 851 852 853 854 855 856 857 858 859 859
820 819 819 818 817 817 816 816 816 815 814 814 813 812 811 811 810 810 810 810 810 810 811 812 812 813 815 816 816 818 819 819 819 820 821 821 819 819 819 818 818 819 820 822 823 824 824 825 826 826 826 826 827 828 829 829 830 830 830 831 832 833 834 835 837 839 840 842 843 844 845 846 847 848 849 850 851 852 853 854 855 856 857 858 859
819 819 818 817 817 816 816 815 815 814 814 813 812 812 811 810 809 809 809 809 809 809 809 810 811 811 812 814 814 816 817 818 818 817 818 819 819 817 816 816 816 815 817 819 820 822 823 823 824 824 824 825 825 827 827 828 828 828 828 829 830 831 832 834 836 837 839 840 842 843 844 845 846 847 848 849 850 851 852 853 854 855 856 857 858
818 818 817 816 816 815 815 815 815 814 814 813 812 811 811 810 809 809 808 808 808 808 807 809 810 809 809 811 813 814 815 815 816 817 816 817 817 815 814 814 813 813 814 816 817 819 821 822 822 823 823 823 823 824 825 826 826 826 826 827 828 829 830 832 834 836 837 839 840 842 843 844 845 846 847 848 849 850 851 852 853 854 855 856 857
818 817 817 816 815 815 814 814 814 813 813 812 812 811 810 809 808 808 807 807 807 807 806 807 808 808 808 809 811 812 812 813 814 816 816 816 816 815 813 812 812 811 811 813 814 816 818 819 820 820 821 821 822 823 823 824 825 825 824 825 826 827 828 830 832 834 835 837 839 840 842 843 844 845 847 848 849 850 850 851 852 853 854 855 856
818 817 816 816 815 814 813 813 813 812 812 811 810 810 809 809 808 807 806 806 806 805 805 805 805 806 806 807 809 809 810 812 812 813 815 815 815 814 813 812 811 809 809 810 812 813 814 815 816 818 819 819 820 821 821 822 822 823 823 823 824 825 826 828 829 831 833 835 837 838 840 841 843 844 845 847 848 849 850 850 851 852 853 854 854
818 817 816 815 815 814 813 812 812 811 811 810 809 809 808 808 807 806 806 805 805 804 804 804 804 803 804 805 806 807 808 809 810 811 813 814 814 813 812 811 810 809 808 808 809 810 810 810 811 814 816 817 818 818 818 819 820 821 822 822 822 823 824 826 827 829 830 832 834 836 837 839 841 842 844 845 846 848 849 849 849 850 851 852 853
818 817 816 815 815 814 813 812 812 811 810 809 809 808 807 807 806 806 805 804 804 803 803 803 802 802 802 803 804 805 805 806 808 809 810 811 812 811 810 810 810 809 808 807 807 808 808 808 808 810 812 813 815 815 816 816 817 818 820 821 821 822 823 824 825 826 828 830 831 833 835 837 838 840 842 843 844 846 847 848 848 849 850 851 852
817 817 816 815 814 813 813 812 811 810 810 809 808 807 807 806 806 805 804 803 802 802 801 801 801 800 800 801 802 802 802 803 805 805 806 806 807 808 808 809 810 810 808 806 805 805 806 807 808 808 809 811 812 812 814 816 817 818 820 820 820 821 822 822 823 825 826 827 829 831 832 834 836 838 839 841 842 843 845 846 847 848 849 850 850
817 816 815 815 814 813 813 812 811 810 809 808 807 807 806 806 805 804 803 803 802 800 800 799 799 799 799 799 800 800 801 801 801 802 802 803 804 805 805 805 807 809 808 806 804 803 804 806 807 807 808 809 809 810 812 813 815 817 819 820 820 820 821 822 822 824 825 826 827 828 830 832 833 835 837 838 840 841 842 844 845 846 847 848 849
816 816 815 814 814 813 812 811 811 810 809 808 807 806 806 805 804 804 803 802 801 800 799 798 798 798 798 798 798 799 799 798 799 799 801 802 803 803 803 802 804 806 806 806 804 802 803 804 805 805 806 807 808 809 809 810 811 813 814 817 820 820 820 821 822 823 824 825 826 827 828 830 831 833 834 836 837 839 840 842 843 844 845 846 847
816 815 815 814 813 812 812 811 810 809 809 808 807 806 805 804 804 803 803 802 801 799 798 797 797 796 797 797 796 797 797 797 797 797 798 800 801 801 801 801 801 802 803 805 804 802 801 802 803 803 804 806 807 807 806 807 809 811 811 814 819 820 820 820 821 822 823 823 824 826 827 828 829 831 832 834 835 837 838 840 841 842 843 844 845
815 815 814 813 813 812 811 810 810 809 808 807 806 805 804 804 803 802 802 801 800 798 797 796 795 795 795 795 795 795 795 796 795 795 796 797 798 799 800 800 800 800 801 803 803 801 800 801 802 802 802 803 805 805 805 806 807 809 810 811 815 819 820 820 820 821 822 823 823 824 825 826 828 829 830 832 833 835 836 838 839 840 842 843 843
815 814 813 813 812 811 810 810 809 808 808 807 806 805 804 803 802 802 801 800 799 798 796 796 795 794 793 793 793 793 793 793 794 794 794 794 795 797 798 799 798 798 800 801 802 800 800 800 801 801 800 801 804 805 805 805 805 807 809 809 811 814 816 818 819 820 820 821 822 823 824 825 826 827 829 830 831 832 834 836 837 839 840 841 842
815 814 813 812 811 811 810 809 809 808 807 807 806 805 804 803 802 801 800 799 798 797 796 795 794 793 793 792 792 792 791 791 792 792 792 793 794 794 795 795 795 796 798 799 799 799 799 799 800 800 801 801 803 804 803 803 804 806 807 808 810 812 813 814 816 818 818 819 820 820 822 823 824 826 827 828 829 831 832 834 835 837 838 839 840
815 814 813 812 811 811 810 809 809 808 807 806 806 805 804 803 802 801 800 798 797 796 795 794 792 792 792 791 792 791 790 790 790 790 790 790 791 792 792 793 793 794 795 797 798 798 798 798 798 799 800 801 801 802 802 803 803 804 805 807 810 811 810 810 811 812 813 815 816 818 819 820 822 823 825 827 828 829 830 832 833 834 835 836 837
814 814 813 812 811 810 810 809 808 808 807 806 806 805 804 803 802 801 799 798 797 796 795 793 792 792 791 790 790 789 788 788 788 789 788 788 788 789 790 791 792 793 794 795 795 796 797 797 797 798 798 799 799 800 802 803 803 803 804 805 808 808 807 807 807 807 807 809 812 815 817 818 820 821 823 825 826 828 829 830 831 832 833 834 835
814 814 813 812 811 811 810 809 809 808 808 807 806 805 804 803 802 800 799 797 796 795 794 793 792 791 790 789 788 788 787 787 787 787 787 787 787 788 789 790 790 791 792 793 794 794 795 795 795 796 796 797 797 799 802 803 803 803 803 804 805 805 805 805 805 805 806 808 810 813 815 816 818 819 821 823 824 826 827 828 829 830 830 831 831
814 813 812 812 811 811 810 810 809 809 808 807 806 805 804 803 801 800 799 798 796 795 794 793 791 790 789 789 788 788 787 787 787 787 786 786 787 787 788 788 788 789 790 791 792 793 793 793 793 794 795 796 796 796 800 802 802 802 803 803 803 803 804 804 803 803 805 806 808 810 812 813 815 816 818 820 822 824 825 826 826 826 827 827 828
814 813 812 812 811 811 810 810 809 808 808 807 806 805 804 803 802 801 799 798 796 794 793 792 791 790 789 788 787 787 786 786 786 786 786 786 786 786 786 787 787 788 788 790 791 792 792 792 792 793 793 795 796 796 798 801 801 801 802 802 802 803 803 802 802 802 803 804 805 806 808 810 811 813 815 818 820 821 822 822 822 823 824 825 826
813 812 812 811 811 810 810 809 809 808 807 807 806 805 803 802 801 800 799 797 795 794 792 791 790 789 788 787 786 786 785 784 784 785 785 785 785 784 783 785 786 787 788 789 789 790 790 790 791 792 792 793 794 795 797 799 801 801 801 801 801 802 802 801 801 801 802 803 804 804 806 807 809 811 813 815 817 818 818 819 820 821 822 824 825
812 812 811 811 810 810 809 809 808 807 807 806 805 804 803 802 800 798 797 796 794 793 791 790 789 788 788 787 786 785 784 784 783 783 783 784 784 783 782 783 785 787 787 788 788 788 789 789 790 790 791 791 792 793 796 798 799 800 800 800 800 800 801 800 800 801 801 802 803 804 805 807 808 809 810 812 814 815 815 816 817 819 819 821 822
812 811 811 810 810 809 809 808 807 807 806 805 804 803 802 801 799 797 795 794 793 792 790 789 788 788 787 786 785 785 784 784 783 783 783 783 783 783 783 783 784 785 786 787 787 787 787 788 788 788 789 789 789 791 794 796 797 798 798 799 800 800 800 799 799 800 801 802 802 802 804 805 806 808 809 810 811 812 813 814 815 816 817 818 819
811 811 810 810 809 809 808 807 807 806 805 804 803 802 801 799 797 796 794 793 792 791 790 788 787 787 786 785 784 784 784 784 783 783 783 784 784 784 784 783 784 784 785 786 785 785 786 786 787 787 787 787 787 789 792 792 793 795 796 797 798 798 798 799 799 800 800 801 801 802 803 805 806 808 808 809 809 810 811 812 814 815 816 816 817
811 810 810 809 808 808 807 806 806 805 804 803 802 801 800 798 796 795 793 792 791 790 789 788 787 786 786 785 784 784 784 783 783 784 784 784 784 784 784 784 784 784 784 785 785 785 785 786 786 786 786 786 786 787 789 790 790 791 792 794 796 796 796 796 797 798 798 799 800 801 803 804 805 807 807 808 809 809 810 812 814 815 815 815 816
810 809 809 808 808 807 806 806 805 804 803 802 801 800 799 797 795 794 792 791 790 789 788 787 787 786 786 785 784 784 784 783 783 783 783 784 784 784 784 783 783 784 784 785 785 785 785 785 786 786 786 786 786 786 787 787 788 789 789 792 794 794 794 794 794 795 796 797 799 800 802 803 804 805 806 807 808 809 810 812 813 814 814 815 815
809 808 808 808 807 806 805 805 804 803 802 801 800 799 798 796 794 793 791 790 789 789 788 787 787 786 785 785 784 784 784 783 783 783 783 783 783 784 784 783 783 784 784 785 785 785 785 785 785 786 786 786 786 786 787 787 788 788 788 790 791 792 793 793 793 793 795 796 797 798 801 802 803 804 806 808 809 809 810 812 812 813 814 814 815
808 807 807 806 806 805 804 804 803 802 801 800 799 798 797 795 794 792 791 790 789 788 788 787 787 786 785 785 784 784 783 783 783 783 783 783 783 783 783 783 784 785 785 785 785 785 784 784 785 785 786 786 786 787 787 787 787 787 787 787 788 789 791 792 793 793 794 795 795 796 800 803 803 804 806 808 809 809 810 812 813 813 814 815 815
807 806 806 805 805 804 803 803 802 801 800 799 798 797 796 794 793 791 790 789 788 788 787 787 787 786 785 785 784 784 783 783 782 782 782 782 783 783 783 783 784 785 785 786 785 785 785 784 785 785 785 786 786 787 787 787 786 786 786 785 785 787 789 792 793 793 794 795 794 795 799 803 803 804 806 808 809 810 811 813 814 815 816 815 814
806 805 805 804 803 803 802 802 801 800 799 798 797 796 795 794 792 791 790 789 788 788 787 787 786 785 785 784 784 784 783 783 782 782 782 782 782 783 783 783 785 785 786 786 786 786 786 785 785 786 786 786 786 787 787 787 786 786 786 786 787 788 790 792 794 795 795 796 796 796 799 803 804 804 807 809 810 811 812 813 814 816 816 815 815
804 804 803 803 802 801 801 800 800 799 798 797 796 795 794 793 791 790 790 788 788 787 786 786 786 785 785 784 784 783 783 782 782 782 782 782 782 782 783 784 785 786 787 787 787 787 787 786 787 787 787 787 787 787 788 788 787 787 787 788 789 790 791 793 795 797 797 797 798 798 800 804 805 805 808 810 811 812 813 814 814 815 816 815 815
802 802 802 801 801 800 799 799 799 798 797 796 796 795 794 792 791 790 789 788 788 787 786 786 786 785 785 784 783 783 783 782 782 782 782 782 782 783 783 784 786 787 788 789 788 788 788 787 788 788 788 788 788 788 789 789 789 789 788 789 790 791 791 793 795 797 798 798 799 799 800 804 806 806 808 810 812 813 813 814 814 815 815 816 816
800 800 800 799 799 798 798 798 797 797 797 795 795 794 793 792 791 790 789 788 787 787 786 786 786 785 785 784 783 783 783 782 782 782 782 782 782 783 784 785 786 788 789 789 789 789 788 788 789 790 790 789 789 789 790 790 790 790 790 790 791 791 792 793 795 796 798 800 800 800 801 804 806 807 808 809 812 814 815 814 815 815 816 816 816